Weather History for Redmond, OR

Change the Weather History Date:

Sunday, April 7, 2013

  Actual Average Record
Temperature  
Mean Temperature 43 °F 43 °F  
Max Temperature 52 °F 58 °F 82 °F (1977)
Min Temperature 34 °F 28 °F 15 °F (1969)
Degree Days  
Heating Degree Days 22 22  
Month to date heating degree days 112 157  
Since 1 July heating degree days 5337 5608  
Cooling Degree Days 0 0  
Month to date cooling degree days 0 0  
Year to date cooling degree days 0 0  
Moisture  
Dew Point 28 °F    
Average Humidity 49    
Maximum Humidity 70    
Minimum Humidity 27    
Precipitation  
Precipitation T in 0.02 in 0.38 in (2006)
Month to date precipitation 0.01 0.15  
Year to date precipitation 0.76 2.43  
Sea Level Pressure  
Sea Level Pressure 29.75 in    
Wind  
Wind Speed 14 mph (West)    
Max Wind Speed 32 mph    
Max Gust Speed 47 mph    
Visibility 10 miles    
Events      
T = Trace of Precipitation, MM = Missing Value Source: NWS Daily Summary

Daily Weather History Graph

Daily Weather History Graph

Search for Another Location

Airport:

Trip Planner

Search our weather history database for the weather conditions in past years. The results will help you decide how hot, cold, wet, or windy it might be!

Date:

Astronomy

Apr. 07, 2013 Rise Set
Actual Time 6:34 AM PDT 7:39 PM PDT
Civil Twilight 6:04 AM PDT 8:09 PM PDT
Nautical Twilight 5:29 AM PDT 8:44 PM PDT
Astronomical Twilight 4:52 AM PDT 9:22 PM PDT
Moon 5:00 AM PDT (4/7) 5:12 PM PDT (4/7)
Length of Visible Light 14h 04m
Length of Day
13h 05m
Waning Crescent, 7% of the Moon is Illuminated
Apr 7
Waning Crescent
Apr 10
New
Apr 18
First Quarter
Apr 25
Full
May 2
Last Quarter

Hourly Weather History & Observations

Time (PDT) Temp. Windchill Dew Point Humidity Pressure Visibility Wind Dir Wind Speed Gust Speed Precip Events Conditions
12:56 AM 43.0 °F 36.4 °F 34.0 °F 71% 29.75 in 10.0 mi South 12.7 mph - N/A   Mostly Cloudy
1:56 AM 44.1 °F 37.4 °F 35.1 °F 71% 29.71 in 10.0 mi SSW 13.8 mph 21.9 mph N/A   Scattered Clouds
2:56 AM 44.1 °F 36.5 °F 35.1 °F 71% 29.65 in 10.0 mi South 17.3 mph 27.6 mph 0.00 in   Clear
3:56 AM 45.0 °F 37.6 °F 35.1 °F 68% 29.64 in 10.0 mi SSW 17.3 mph 27.6 mph N/A   Scattered Clouds
4:56 AM 45.0 °F 40.6 °F 35.1 °F 68% 29.63 in 10.0 mi SSW 8.1 mph - N/A   Mostly Cloudy
5:56 AM 45.0 °F 38.5 °F 30.0 °F 56% 29.67 in 10.0 mi SW 13.8 mph 21.9 mph N/A   Mostly Cloudy
6:56 AM 44.1 °F 38.6 °F 32.0 °F 63% 29.70 in 10.0 mi West 10.4 mph - N/A   Overcast
7:56 AM 43.0 °F 38.2 °F 30.9 °F 62% 29.73 in 10.0 mi WNW 8.1 mph - N/A   Partly Cloudy
8:56 AM 44.1 °F 37.7 °F 32.0 °F 63% 29.74 in 10.0 mi West 12.7 mph - N/A   Overcast
9:56 AM 48.0 °F - 30.9 °F 52% 29.74 in 10.0 mi WSW 15.0 mph 19.6 mph N/A   Scattered Clouds
10:56 AM 48.9 °F - 28.0 °F 44% 29.76 in 10.0 mi WNW 16.1 mph 27.6 mph N/A   Scattered Clouds
11:56 AM 48.0 °F - 23.0 °F 37% 29.76 in 10.0 mi West 13.8 mph 35.7 mph N/A   Mostly Cloudy
12:56 PM 52.0 °F - 24.1 °F 34% 29.74 in 10.0 mi West 18.4 mph 26.5 mph N/A   Mostly Cloudy
1:56 PM 50.0 °F - 18.0 °F 28% 29.75 in 10.0 mi West 28.8 mph 38.0 mph N/A   Clear
2:56 PM 48.9 °F - 25.0 °F 39% 29.76 in 10.0 mi West 11.5 mph 19.6 mph N/A   Partly Cloudy
3:24 PM 48.2 °F - 24.8 °F 40% 29.77 in 10.0 mi West 17.3 mph 24.2 mph N/A   Mostly Cloudy
3:56 PM 48.9 °F - 24.1 °F 38% 29.77 in 10.0 mi WNW 19.6 mph 28.8 mph N/A   Partly Cloudy
4:56 PM 45.0 °F 36.4 °F 25.0 °F 46% 29.78 in 10.0 mi WNW 23.0 mph 33.4 mph N/A   Clear
5:56 PM 42.1 °F 34.9 °F 25.0 °F 51% 29.79 in 10.0 mi NW 13.8 mph 23.0 mph N/A   Clear
6:56 PM 39.9 °F 30.8 °F 25.0 °F 55% 29.79 in 10.0 mi WNW 18.4 mph 26.5 mph N/A   Scattered Clouds
7:56 PM 37.9 °F 30.5 °F 25.0 °F 60% 29.81 in 10.0 mi WNW 11.5 mph - N/A   Clear
8:56 PM 36.0 °F 27.5 °F 25.0 °F 64% 29.82 in 10.0 mi West 12.7 mph - N/A   Partly Cloudy
9:56 PM 35.1 °F 30.1 °F 25.0 °F 67% 29.83 in 10.0 mi NW 5.8 mph - N/A   Clear
10:56 PM 35.1 °F 29.3 °F 25.0 °F 67% 29.83 in 10.0 mi West 6.9 mph - N/A   Overcast
11:56 PM 35.1 °F 29.3 °F 25.0 °F 67% 29.85 in 10.0 mi WNW 6.9 mph - N/A   Scattered Clouds